Powrót do katalogu

SL-12 R/B(2)

AktywnyUNKNOWN
NORAD 27473·ROCKET BODY·🇷🇺 Russia

Wystrzelony Jul 25, 2002 z Baikonur Cosmodrome

Loading…

Następne Przeloty (najbliższe 24 godziny)

TLE

ŚwieżeSource: Space-Track

Epoka: Sep 14, 2026, 10:44 UTC

1 27473U 02037D   26257.44750926 -.00000065  00000-0 -30581-4 0  9998
2 27473  63.4164  57.6442 0635264 348.4943  36.4623 12.01428240 59224

Śledź SL-12 R/B(2) w czasie rzeczywistym z AllMySat

Download on the App Store